EW9800 Weather Reports


time (UTC)temp
C
wind
direction
speed
KPH
gust
KPH
rain 1hr
cm
rain 24hr
cm
rain mn
cm
humidity
%
barometer
mb
20260510190504 21 60 3.2 11.3 0.00 0.79 0.03 55 1013.4
20260510190007 21 115 3.2 11.3 0.00 0.79 0.03 54 1013.5
20260510185502 22 180 1.6 6.4 0.00 0.79 0.03 55 1013.4
20260510185002 22 98 1.6 6.4 0.00 0.79 0.03 56 1013.5
20260510184509 22 265 0.0 9.7 0.00 0.79 0.03 56 1013.5
20260510184005 21 255 3.2 11.3 0.00 0.81 0.03 54 1013.5
20260510183504 22 101 1.6 11.3 0.00 0.81 0.03 53 1013.5
20260510183003 22 116 1.6 11.3 0.00 0.81 0.03 51 1013.5
20260510182502 22 43 1.6 6.4 0.00 0.84 0.03 54 1013.5
20260510182003 22 214 3.2 8.0 0.00 0.84 0.03 53 1013.4
20260510181506 22 125 3.2 12.9 0.00 0.84 0.03 53 1013.5
20260510181004 21 284 1.6 12.9 0.00 0.86 0.03 57 1013.5
20260510180506 22 239 1.6 6.4 0.00 0.86 0.03 62 1013.4
20260510180013 21 153 1.6 6.4 0.00 0.86 0.03 61 1013.4
20260510175504 22 258 1.6 8.0 0.00 0.86 0.03 60 1013.3
20260510175006 22 160 1.6 8.0 0.00 0.86 0.03 59 1013.2
20260510174504 22 208 0.0 9.7 0.00 0.86 0.03 62 1013.2
20260510174003 22 302 1.6 9.7 0.00 0.86 0.03 60 1013.2
20260510173507 21 130 1.6 6.4 0.00 0.86 0.03 61 1013.0
20260510173003 21 236 0.0 6.4 0.00 0.86 0.03 63 1013.2
20260510172503 21 147 3.2 6.4 0.00 0.86 0.03 61 1013.1
20260510172004 21 148 0.0 9.7 0.00 0.86 0.03 64 1013.2
20260510171503 21 129 1.6 9.7 0.00 0.86 0.03 63 1013.2
20260510171004 20 240 1.6 4.8 0.00 0.86 0.03 63 1013.2
20260510170508 21 143 0.0 4.8 0.00 0.86 0.03 65 1013.3
20260510170008 21 162 1.6 4.8 0.00 0.86 0.03 63 1013.3
20260510165505 20 297 1.6 9.7 0.00 0.86 0.03 68 1013.3
20260510165005 20 150 1.6 9.7 0.00 0.86 0.03 67 1013.4
20260510164512 20 153 3.2 8.0 0.00 0.86 0.03 64 1013.5
20260510164003 20 133 1.6 6.4 0.00 0.86 0.03 64 1013.4
20260510163505 20 139 1.6 4.8 0.00 0.86 0.03 66 1013.4
20260510163018 20 285 1.6 4.8 0.00 0.86 0.03 66 1013.5
20260510162501 20 292 1.6 6.4 0.00 0.86 0.03 69 1013.5
20260510162003 20 115 1.6 8.0 0.00 0.86 0.03 66 1013.5
20260510161503 19 88 3.2 8.0 0.00 0.86 0.03 67 1013.5
20260510161005 19 262 1.6 4.8 0.00 0.86 0.03 68 1013.6
20260510160503 20 166 1.6 8.0 0.00 0.86 0.03 66 1013.6
20260510160006 19 153 1.6 8.0 0.00 0.86 0.03 70 1013.6
20260510155504 19 121 1.6 6.4 0.00 0.86 0.03 71 1013.5
20260510155004 18 249 0.0 6.4 0.00 0.86 0.03 71 1013.4
20260510154511 18 215 0.0 6.4 0.00 0.86 0.03 72 1013.5
20260510154004 18 168 3.2 6.4 0.00 0.86 0.03 70 1013.5
20260510153503 17 143 1.6 6.4 0.00 0.86 0.03 71 1013.6
20260510153017 18 149 1.6 6.4 0.00 0.86 0.03 71 1013.6
20260510152505 17 277 1.6 4.8 0.00 0.86 0.03 77 1013.5
20260510152007 17 131 1.6 4.8 0.00 0.86 0.03 72 1013.5
20260510151520 17 156 0.0 4.8 0.00 0.86 0.03 74 1013.6
20260510151003 17 160 1.6 4.8 0.00 0.86 0.03 75 1013.4
20260510150506 18 261 0.0 8.0 0.00 0.86 0.03 73 1013.5
20260510150004 17 152 1.6 8.0 0.00 0.86 0.03 74 1013.6
20260510145503 16 158 0.0 4.8 0.00 0.86 0.03 78 1013.8
20260510145003 16 267 0.0 4.8 0.00 0.86 0.03 76 1013.9
20260510144504 16 144 1.6 4.8 0.00 0.86 0.03 78 1013.9
20260510144002 16 128 1.6 4.8 0.00 0.86 0.03 77 1013.8
20260510143502 16 156 0.0 3.2 0.00 0.86 0.03 79 1013.8
20260510143010 15 147 0.0 3.2 0.00 0.86 0.03 79 1013.8
20260510142503 15 51 0.0 3.2 0.00 0.86 0.03 82 1013.8
20260510142006 15 79 0.0 3.2 0.00 0.86 0.03 82 1013.7
20260510141516 15 94 0.0 3.2 0.00 0.86 0.03 83 1013.8
20260510141012 14 121 0.0 3.2 0.00 0.86 0.03 86 1013.8
20260510140508 13 282 0.0 4.8 0.00 0.86 0.03 86 1013.8
20260510140021 13 95 1.6 4.8 0.03 0.86 0.03 87 1013.7
20260510135505 12 135 0.0 4.8 0.03 0.86 0.03 92 1013.7
20260510135004 12 180 0.0 4.8 0.03 0.86 0.03 92 1013.7
20260510134506 12 199 0.0 3.2 0.03 0.86 0.03 93 1013.7
20260510134003 12 126 0.0 3.2 0.03 0.86 0.03 93 1013.7
20260510133502 12 281 0.0 3.2 0.03 0.86 0.03 93 1013.7
20260510133014 12 68 0.0 3.2 0.03 0.86 0.03 93 1013.7
20260510132504 12 64 0.0 3.2 0.03 0.86 0.03 93 1013.8
20260510132006 12 16 0.0 3.2 0.03 0.86 0.03 93 1013.8
20260510131514 12 127 0.0 3.2 0.03 0.86 0.03 93 1013.8
20260510131007 11 94 0.0 1.6 0.03 0.86 0.03 93 1013.7
20260510130506 11 94 0.0 1.6 0.03 0.86 0.03 93 1013.4
20260510130028 11 93 0.0 1.6 0.00 0.84 0.00 93 1013.3
20260510125507 11 95 0.0 0.0 0.00 0.84 0.00 93 1013.3
20260510125010 11 232 0.0 0.0 0.00 0.84 0.00 93 1013.3
20260510124523 11 249 0.0 0.0 0.00 0.84 0.00 93 1013.2
20260510124010 11 180 0.0 0.0 0.00 0.84 0.00 93 1013.2
20260510123512 11 303 0.0 0.0 0.00 0.84 0.00 93 1013.3
20260510123009 11 357 0.0 0.0 0.00 0.84 0.00 93 1013.3
20260510122504 11 89 0.0 0.0 0.00 0.84 0.00 93 1013.3
20260510122003 11 89 0.0 0.0 0.00 0.84 0.00 93 1013.3
20260510121509 11 89 0.0 0.0 0.00 0.84 0.00 93 1013.2
20260510121003 11 89 0.0 0.0 0.00 0.84 0.00 93 1013.1
20260510120504 11 89 0.0 0.0 0.00 0.84 0.00 93 1013.1
20260510120015 11 89 0.0 0.0 0.00 0.84 0.00 93 1013.0
20260510115503 10 89 0.0 0.0 0.00 0.84 0.00 93 1012.8
20260510115007 10 89 0.0 0.0 0.00 0.84 0.00 93 1012.8
20260510114518 10 89 0.0 0.0 0.00 0.84 0.00 93 1012.7
20260510114009 10 89 0.0 0.0 0.00 0.84 0.00 93 1012.9
20260510113507 10 89 0.0 0.0 0.00 0.84 0.00 93 1012.9
20260510113037 10 89 0.0 0.0 0.00 0.84 0.00 93 1012.9
20260510112512 10 89 0.0 0.0 0.00 0.84 0.00 93 1012.8
20260510112010 10 89 0.0 0.0 0.00 0.84 0.00 93 1012.7
20260510111506 10 89 0.0 0.0 0.00 0.84 0.00 93 1012.7
20260510111004 10 89 0.0 0.0 0.00 0.84 0.00 93 1012.8
20260510110503 10 89 0.0 0.0 0.00 0.84 0.00 93 1012.6
20260510110028 10 89 0.0 0.0 0.00 0.84 0.00 93 1012.5
20260510105504 10 89 0.0 0.0 0.00 0.84 0.00 92 1012.4
20260510105009 10 89 0.0 0.0 0.00 0.84 0.00 92 1012.2
20260510104519 10 89 0.0 0.0 0.00 0.84 0.00 92 1012.2
20260510104006 10 89 0.0 0.0 0.00 0.84 0.00 92 1012.1
20260510103506 10 89 0.0 0.0 0.00 0.84 0.00 92 1012.2
20260510103004 10 89 0.0 0.0 0.00 0.84 0.00 92 1012.2
20260510102505 10 89 0.0 0.0 0.00 0.84 0.00 92 1012.3
20260510102002 10 89 0.0 0.0 0.00 0.84 0.00 92 1012.2
20260510101507 10 89 0.0 0.0 0.00 0.84 0.00 92 1012.1
20260510101004 10 108 0.0 0.0 0.00 0.84 0.00 92 1012.1
20260510100504 10 108 0.0 0.0 0.00 0.84 0.00 92 1012.2
20260510100008 10 349 0.0 0.0 0.00 0.84 0.00 92 1012.2
20260510095505 10 351 0.0 1.6 0.00 0.84 0.00 92 1012.2
20260510095004 10 316 0.0 3.2 0.00 0.84 0.00 92 1012.1
20260510094515 10 31 0.0 3.2 0.00 0.84 0.00 92 1012.2
20260510094004 10 40 0.0 3.2 0.00 0.84 0.00 92 1012.1
20260510093502 10 255 0.0 3.2 0.00 0.84 0.00 92 1012.1
20260510093002 10 185 0.0 1.6 0.00 0.84 0.00 92 1012.1
20260510092502 10 180 0.0 1.6 0.00 0.84 0.00 92 1012.0
20260510092004 10 180 0.0 1.6 0.00 0.84 0.00 92 1012.1
20260510091505 10 180 0.0 0.0 0.00 0.84 0.00 92 1012.2
20260510091003 10 180 0.0 1.6 0.00 0.84 0.00 92 1012.2
20260510090503 10 180 0.0 1.6 0.00 0.84 0.00 92 1012.3
20260510090007 10 180 0.0 1.6 0.00 0.84 0.00 92 1012.3
20260510085505 10 180 0.0 3.2 0.00 0.84 0.00 92 1012.4
20260510085003 10 180 0.0 3.2 0.00 0.84 0.00 92 1012.4
20260510084517 10 180 0.0 3.2 0.00 0.84 0.00 92 1012.3
20260510084004 10 180 0.0 3.2 0.00 0.84 0.00 92 1012.4
20260510083506 10 180 0.0 3.2 0.00 0.84 0.00 92 1012.5
20260510083017 10 303 0.0 0.0 0.00 0.84 0.00 92 1012.5
20260510082508 10 303 0.0 0.0 0.00 0.84 0.00 92 1012.6
20260510082002 10 303 0.0 1.6 0.00 0.84 0.00 92 1012.4
20260510081503 10 303 0.0 3.2 0.00 0.84 0.00 92 1012.5
20260510081002 10 239 0.0 3.2 0.00 0.84 0.00 92 1012.5
20260510080504 10 147 0.0 4.8 0.00 0.84 0.00 92 1012.5
20260510080006 10 349 0.0 4.8 0.00 0.84 0.00 92 1012.4
20260510075507 10 12 1.6 3.2 0.00 0.84 0.00 92 1012.2
20260510075004 10 32 0.0 3.2 0.00 0.84 0.00 92 1012.4
20260510074510 10 165 0.0 3.2 0.00 0.84 0.00 92 1012.2
20260510074003 10 5 0.0 3.2 0.00 0.84 0.00 92 1012.3
20260510073503 10 76 0.0 0.0 0.00 0.84 0.00 92 1011.7
20260510073013 10 76 0.0 0.0 0.00 0.84 0.00 92 1011.7
20260510072504 10 76 0.0 0.0 0.00 0.84 0.00 92 1011.7
20260510072007 10 76 0.0 0.0 0.00 0.84 0.00 92 1011.8
20260510071522 10 76 0.0 0.0 0.00 0.84 0.00 92 1011.9
20260510071011 10 76 0.0 0.0 0.00 0.84 0.00 91 1011.8
20260510070506 10 76 0.0 0.0 0.00 0.84 0.00 91 1011.9
20260510070005 10 76 0.0 0.0 0.00 0.84 0.00 92 1012.0
20260510065503 10 76 0.0 0.0 0.00 0.84 0.00 92 1012.0
20260510065003 10 76 0.0 0.0 0.00 0.84 0.00 92 1011.9
20260510064508 10 76 0.0 0.0 0.00 0.84 0.00 92 1011.8
20260510064003 10 76 0.0 0.0 0.00 0.84 0.00 92 1011.9
20260510063512 10 76 0.0 0.0 0.00 0.84 0.00 92 1011.9
20260510063013 10 76 0.0 0.0 0.00 0.84 0.00 92 1012.0
20260510062504 10 76 0.0 0.0 0.00 0.84 0.00 92 1012.1
20260510062007 10 76 0.0 0.0 0.00 0.84 0.00 92 1012.1
20260510061515 10 76 0.0 0.0 0.00 0.84 0.00 92 1012.0
20260510061007 10 76 0.0 0.0 0.00 0.84 0.00 92 1012.0
20260510060506 10 76 0.0 0.0 0.00 0.84 0.00 92 1012.0
20260510060021 10 76 0.0 0.0 0.00 0.84 0.00 92 1011.9
20260510055510 10 76 0.0 0.0 0.00 0.84 0.00 92 1011.9
20260510055006 10 76 0.0 0.0 0.00 0.84 0.00 92 1011.8
20260510054526 10 76 0.0 0.0 0.00 0.84 0.00 92 1011.7
20260510054005 10 76 0.0 0.0 0.00 0.84 0.00 92 1011.7
20260510053502 10 76 0.0 0.0 0.00 0.84 0.00 92 1011.8
20260510053008 10 76 0.0 0.0 0.00 0.84 0.00 92 1011.8
20260510052504 10 76 0.0 1.6 0.00 0.84 0.00 92 1011.8
20260510052002 10 76 0.0 1.6 0.00 0.84 0.00 92 1011.8
20260510051514 10 76 0.0 1.6 0.00 0.84 0.00 92 1011.9
20260510051004 10 53 0.0 0.0 0.00 0.84 0.00 92 1011.9
20260510050509 10 53 0.0 0.0 0.00 0.84 0.00 92 1011.9
20260510050017 10 53 0.0 0.0 0.00 0.84 0.00 92 1011.9
20260510045507 10 53 0.0 0.0 0.00 0.84 0.00 92 1012.0
20260510045010 10 53 0.0 0.0 0.00 0.84 0.00 92 1012.0
20260510044532 10 53 0.0 0.0 0.00 0.84 0.00 92 1012.0
20260510044007 10 53 0.0 0.0 0.00 0.84 0.00 92 1012.0
20260510043508 10 53 0.0 0.0 0.00 0.84 0.00 92 1012.0
20260510043024 10 53 0.0 0.0 0.00 0.84 0.00 92 1012.0
20260510042511 10 53 0.0 0.0 0.00 0.84 0.00 92 1011.9
20260510042005 10 53 0.0 0.0 0.00 0.84 0.00 92 1012.0
20260510041510 10 68 0.0 0.0 0.00 0.84 0.00 92 1012.0
20260510041005 10 67 0.0 0.0 0.00 0.84 0.00 92 1012.0
20260510040506 10 67 0.0 0.0 0.00 0.84 0.00 92 1012.0
20260510040016 10 67 0.0 0.0 0.00 0.84 0.00 91 1012.0
20260510035507 10 67 0.0 0.0 0.00 0.84 0.84 91 1012.0
20260510035004 10 67 0.0 0.0 0.00 0.84 0.84 91 1012.0
20260510034520 10 67 0.0 0.0 0.00 0.84 0.84 91 1011.8
20260510034007 10 67 0.0 0.0 0.00 0.84 0.84 91 1011.9
20260510033508 10 67 0.0 0.0 0.00 0.84 0.84 91 1011.8
20260510033026 10 67 0.0 0.0 0.00 0.84 0.84 91 1011.8
20260510032508 10 67 0.0 0.0 0.00 0.84 0.84 91 1011.8
20260510032009 10 67 0.0 0.0 0.00 0.84 0.84 91 1011.6
20260510031527 10 67 0.0 0.0 0.00 0.84 0.84 91 1011.6
20260510031012 10 67 0.0 0.0 0.00 0.84 0.84 91 1011.6
20260510030506 10 67 0.0 0.0 0.00 0.84 0.84 91 1011.5
20260510030011 10 68 0.0 1.6 0.00 0.84 0.84 91 1011.6
20260510025506 10 67 0.0 1.6 0.00 0.84 0.84 91 1011.8
20260510025006 10 67 0.0 1.6 0.00 0.84 0.84 91 1011.9
20260510024519 10 67 0.0 3.2 0.00 0.84 0.84 91 1011.8
20260510024007 10 67 0.0 3.2 0.00 0.84 0.84 90 1011.9
20260510023507 10 67 0.0 1.6 0.00 0.84 0.84 90 1011.9
20260510023022 10 67 0.0 0.0 0.00 0.84 0.84 90 1011.9
20260510022507 10 67 0.0 0.0 0.00 0.84 0.84 90 1011.8
20260510022010 10 67 0.0 1.6 0.00 0.84 0.84 90 1011.8
20260510021527 10 67 0.0 1.6 0.00 0.84 0.84 90 1011.7
20260510021008 10 68 0.0 1.6 0.00 0.84 0.84 90 1011.8
20260510020509 10 67 0.0 1.6 0.00 0.84 0.84 90 1011.7
20260510020030 10 87 0.0 1.6 0.00 0.84 0.84 90 1011.7
20260510015509 10 122 0.0 1.6 0.00 0.84 0.84 89 1011.8
20260510015010 10 122 0.0 0.0 0.00 0.84 0.84 89 1011.8
20260510014512 10 122 0.0 0.0 0.00 0.84 0.84 89 1011.8
20260510014004 10 122 0.0 0.0 0.00 0.84 0.84 89 1011.8
20260510013508 10 122 0.0 0.0 0.00 0.84 0.84 89 1011.9
20260510013004 10 122 0.0 0.0 0.00 0.84 0.84 89 1011.9
20260510012503 10 122 0.0 0.0 0.00 0.84 0.84 89 1011.7
20260510012003 10 122 0.0 0.0 0.00 0.84 0.84 89 1011.6
20260510011506 10 122 0.0 0.0 0.00 0.84 0.84 89 1011.6
20260510011002 10 122 0.0 0.0 0.00 0.84 0.84 89 1011.5
20260510010503 11 122 0.0 0.0 0.00 0.84 0.84 89 1011.3
20260510010008 11 122 0.0 0.0 0.00 0.84 0.84 89 1011.2
20260510005503 11 122 0.0 0.0 0.00 0.84 0.84 89 1011.1
20260510005005 11 122 0.0 0.0 0.00 0.84 0.84 89 1011.2
20260510004511 11 122 0.0 0.0 0.00 0.84 0.84 89 1011.1
20260510004010 11 122 0.0 0.0 0.00 0.84 0.84 89 1011.1
20260510003504 11 122 0.0 0.0 0.00 0.84 0.84 89 1011.1
20260510003023 11 122 0.0 0.0 0.00 0.84 0.84 89 1011.0
20260510002506 11 123 0.0 0.0 0.00 0.84 0.84 89 1011.1
20260510002010 11 123 0.0 0.0 0.00 0.84 0.84 89 1011.2
20260510001521 11 123 0.0 0.0 0.00 0.84 0.84 89 1011.2
20260510001003 11 123 0.0 0.0 0.00 0.84 0.84 89 1011.2
20260510000503 11 123 0.0 0.0 0.00 0.84 0.84 89 1011.2
20260510000005 11 123 0.0 0.0 0.00 0.84 0.84 89 1011.1
20260509235508 11 123 0.0 0.0 0.00 0.84 0.84 89 1011.1
20260509235004 12 123 0.0 1.6 0.00 0.84 0.84 89 1011.0
20260509234514 12 123 0.0 1.6 0.00 0.84 0.84 89 1011.0
20260509234003 12 123 0.0 1.6 0.00 0.84 0.84 89 1011.0
20260509233505 12 123 0.0 1.6 0.00 0.84 0.84 89 1010.8
20260509233022 12 123 0.0 3.2 0.00 0.84 0.84 89 1010.8
20260509232510 12 123 0.0 3.2 0.00 0.84 0.84 89 1010.8
20260509232009 12 117 0.0 4.8 0.00 0.84 0.84 89 1010.8
20260509231520 12 129 0.0 4.8 0.00 0.84 0.84 89 1010.8
20260509231007 12 296 0.0 3.2 0.00 0.84 0.84 90 1010.7
20260509230508 12 164 0.0 3.2 0.00 0.84 0.84 90 1010.7
20260509230024 12 216 0.0 4.8 0.00 0.84 0.84 90 1010.7
20260509225507 12 218 0.0 4.8 0.00 0.84 0.84 90 1010.9
20260509225003 12 164 0.0 3.2 0.00 0.84 0.84 90 1010.9
20260509224507 12 139 0.0 3.2 0.00 0.84 0.84 90 1010.9
20260509224003 12 172 0.0 3.2 0.00 0.84 0.84 90 1011.1
20260509223504 12 172 0.0 1.6 0.00 0.84 0.84 90 1011.2
20260509223014 12 203 0.0 3.2 0.03 0.84 0.84 90 1011.3
20260509222504 12 224 0.0 3.2 0.03 0.84 0.84 90 1011.2
20260509222004 12 253 0.0 3.2 0.05 0.84 0.84 90 1011.1
20260509221517 12 114 0.0 3.2 0.10 0.84 0.84 90 1011.0
20260509221013 12 132 0.0 6.4 0.15 0.84 0.84 90 1011.1
20260509220510 12 141 0.0 6.4 0.20 0.84 0.84 90 1011.2
20260509220022 12 199 0.0 3.2 0.23 0.84 0.84 90 1011.1
20260509215507 12 279 0.0 1.6 0.25 0.84 0.84 90 1011.1
20260509215008 12 164 0.0 1.6 0.28 0.84 0.84 89 1011.2
20260509214530 11 126 0.0 3.2 0.30 0.84 0.84 89 1011.1
20260509214009 11 126 0.0 3.2 0.36 0.84 0.84 89 1011.2
20260509213508 11 257 0.0 4.8 0.46 0.84 0.84 89 1011.5
20260509213010 11 271 1.6 4.8 0.46 0.81 0.81 88 1011.4
20260509212504 12 128 0.0 1.6 0.48 0.81 0.81 88 1011.4
20260509212008 12 128 0.0 1.6 0.46 0.79 0.79 88 1011.4
20260509211514 12 128 0.0 3.2 0.43 0.74 0.74 88 1011.4
20260509211003 12 128 0.0 3.2 0.41 0.69 0.69 88 1011.3
20260509210512 12 128 0.0 0.0 0.38 0.64 0.64 88 1011.3
20260509210017 12 128 0.0 1.6 0.36 0.61 0.61 88 1011.1
20260509205508 12 128 0.0 1.6 0.36 0.58 0.58 88 1011.2
20260509205007 12 128 0.0 4.8 0.38 0.56 0.56 87 1011.2
20260509204525 12 128 1.6 4.8 0.41 0.53 0.53 87 1011.1
20260509204008 12 120 1.6 4.8 0.38 0.48 0.48 87 1011.2
20260509203508 12 87 0.0 3.2 0.30 0.38 0.38 87 1011.2
20260509203029 12 225 0.0 3.2 0.28 0.36 0.36 87 1011.2
20260509202508 12 105 0.0 3.2 0.25 0.33 0.33 87 1011.4
20260509202013 12 112 0.0 3.2 0.25 0.33 0.33 87 1011.5
20260509201512 12 122 0.0 3.2 0.23 0.30 0.30 86 1011.5
20260509201011 12 126 0.0 1.6 0.20 0.28 0.28 86 1011.6
20260509200506 12 126 0.0 6.4 0.18 0.25 0.25 86 1011.6
20260509200016 12 126 0.0 6.4 0.18 0.25 0.25 86 1011.4
20260509195508 12 262 1.6 4.8 0.15 0.23 0.23 86 1011.5
20260509195007 12 143 1.6 4.8 0.10 0.18 0.18 86 1011.8
20260509194524 12 112 1.6 4.8 0.05 0.13 0.13 86 1011.7
20260509194009 12 106 0.0 3.2 0.05 0.10 0.10 85 1011.7
20260509193508 12 200 0.0 4.8 0.03 0.08 0.08 85 1011.7
20260509193029 13 144 0.0 4.8 0.05 0.08 0.08 85 1011.7
20260509192507 13 144 0.0 4.8 0.05 0.08 0.08 86 1011.8
20260509192010 12 215 1.6 4.8 0.05 0.08 0.08 85 1011.6
20260509191532 13 120 0.0 3.2 0.05 0.08 0.08 86 1011.7
20260509191011 13 49 0.0 3.2 0.08 0.08 0.08 87 1011.6